Location: *
(47.7167°N, 1.7333°W)
Time: 13:56:34
(UTC+00:00)

Landsat 7 - Pass Details

Date: 09 April 2020
Orbit: 701 x 703 km, 98.1° (Epoch: 26 May)

Event Time Altitude Azimuth Distance (km) Brightness Sun altitude
Exits shadow 21:25:09 61° 187° (S) 799 3.8 -23.7°
Maximum altitude 21:25:57 79° 256° (WSW) 722 3.8 -23.8°
Drops below altitude 10° 21:30:44 10° 344° (NNW) 2,182 7.2 -24.3°
Sets 21:33:01 0° 346° (NNW) 3,105 8.1 -24.6°
